Location: Debolt
(55.2626°N, 118.0981°W)
Time: 12:16:02
(UTC+00:00)

BEESAT - Visible Passes

Search period start: 01 December 2023 00:00
Search period end: 11 December 2023 00:00
Orbit: 696 x 702 km, 98.5° (Epoch: 30 November)

Date Brightness Start Highest point End Pass type
(mag) Time Alt. Az. Time Alt. Az. Time Alt. Az.
01 Dec ? 15:07:04 10° ESE 15:11:01 27° ENE 15:15:00 10° N visible
02 Dec ? 14:13:52 10° ENE 14:15:49 12° NE 14:17:46 10° NNE visible
03 Dec ? 14:53:23 10° ESE 14:56:59 22° NE 15:00:36 10° N visible
04 Dec ? 14:01:21 10° NE 14:01:52 10° NE 14:02:22 10° NE visible
05 Dec ? 14:39:48 10° E 14:42:57 18° NE 14:46:07 10° N visible
07 Dec ? 14:26:19 10° E 14:28:54 15° NE 14:31:31 10° NNE visible
08 Dec ? 15:06:12 10° ESE 15:10:07 26° ENE 15:14:03 10° N visible
09 Dec ? 14:13:04 10° ENE 14:14:53 12° NE 14:16:42 10° NNE visible
10 Dec ? 14:52:28 10° ESE 14:56:00 21° NE 14:59:33 10° N visible
